QPF
0.00 0.00 0.00 0.00 0.00 0.00 0.00 0.00 0.00 0.00 0.00 0.01 0.00 0.00 0.00 0.01 0.01 0.01 0.01 0.01 0.01 0.01 0.02 0.04 0.05 0.02 0.01 0.01 0.01 0.01 0.02 0.02 0.03 0.02 0.03 0.03 0.04 0.05 0.05 0.04 0.03 0.04 0.04
0.00 0.00 0.00 0.00 0.00 0.00 0.00 0.00 0.00 0.00 0.00 0.00 0.00 0.00 0.00 0.00 0.01 0.01 0.01 0.01 0.01 0.01 0.01 0.02 0.05 0.04 0.02 0.01 0.01 0.01 0.01 0.02 0.02 0.02 0.02 0.02 0.02 0.04 0.05 0.05 0.03 0.02 0.03
0.00 0.00 0.00 0.00 0.00 0.00 0.00 0.00 0.00 0.00 0.00 0.00 0.00 0.00 0.01 0.00 0.01 0.01 0.01 0.01 0.00 0.00 0.01 0.02 0.04 0.06 0.03 0.01 0.01 0.01 0.02 0.02 0.02 0.03 0.02 0.01 0.02 0.02 0.03 0.04 0.04 0.02 0.02
0.00 0.00 0.00 0.00 0.00 0.00 0.00 0.00 0.00 0.00 0.00 0.00 0.00 0.00 0.00 0.00 0.01 0.01 0.01 0.01 0.00 0.00 0.00 0.01 0.02 0.04 0.06 0.02 0.01 0.01 0.01 0.01 0.02 0.04 0.04 0.02 0.01 0.02 0.03 0.04 0.04 0.02 0.01
0.00 0.00 0.00 0.00 0.00 0.00 0.00 0.00 0.00 0.00 0.00 0.00 0.00 0.00 0.00 0.00 0.00 0.01 0.00 0.00 0.00 0.00 0.00 0.00 0.01 0.01 0.04 0.05 0.02 0.01 0.01 0.01 0.02 0.03 0.04 0.03 0.02 0.02 0.02 0.03 0.02 0.02 0.02
0.00 0.00 0.00 0.00 0.00 0.00 0.00 0.00 0.00 0.00 0.00 0.00 0.00 0.00 0.00 0.00 0.00 0.00 0.00 0.00 0.00 0.01 0.01 0.00 0.00 0.01 0.01 0.03 0.04 0.02 0.01 0.02 0.02 0.03 0.04 0.03 0.02 0.02 0.02 0.01 0.01 0.02 0.02
0.00 0.00 0.00 0.00 0.00 0.00 0.00 0.00 0.00 0.00 0.00 0.00 0.00 0.00 0.00 0.00 0.00 0.00 0.00 0.00 0.01 0.01 0.01 0.01 0.00 0.00 0.01 0.01 0.02 0.02 0.02 0.01 0.01 0.02 0.02 0.02 0.01 0.01 0.01 0.01 0.02 0.02 0.02
0.00 0.00 0.00 0.00 0.00 0.00 0.00 0.00 0.00 0.00 0.00 0.00 0.00 0.00 0.00 0.00 0.00 0.00 0.00 0.00 0.00 0.00 0.01 0.01 0.01 0.00 0.00 0.00 0.01 0.02 0.02 0.01 0.01 0.01 0.01 0.01 0.01 0.02 0.02 0.02 0.03 0.02 0.02
0.00 0.00 0.00 0.00 0.00 0.00 0.00 0.00 0.00 0.00 0.00 0.00 0.00 0.00 0.00 0.00 0.00 0.00 0.00 0.00 0.00 0.00 0.00 0.00 0.00 0.01 0.00 0.00 0.01 0.01 0.01 0.01 0.01 0.01 0.01 0.01 0.01 0.02 0.02 0.03 0.02 0.03 0.03
0.00 0.00 0.00 0.00 0.00 0.00 0.00 0.00 0.00 0.00 0.00 0.00 0.00 0.00 0.00 0.00 0.00 0.00 0.00 0.00 0.00 0.00 0.01 0.00 0.00 0.00 0.01 0.00 0.01 0.01 0.01 0.01 0.01 0.02 0.02 0.01 0.01 0.01 0.02 0.02 0.03 0.04 0.04
0.00 0.00 0.00 0.00 0.00 0.00 0.00 0.00 0.00 0.00 0.00 0.00 0.00 0.00 0.00 0.00 0.00 0.01 0.01 0.01 0.01 0.01 0.01 0.01 0.00 0.00 0.01 0.01 0.01 0.01 0.01 0.01 0.01 0.02 0.03 0.02 0.01 0.01 0.02 0.02 0.03 0.04 0.04
0.00 0.00 0.00 0.00 0.00 0.00 0.00 0.00 0.00 0.00 0.00 0.00 0.00 0.00 0.00 0.00 0.01 0.01 0.01 0.01 0.01 0.01 0.01 0.01 0.01 0.00 0.01 0.02 0.01 0.01 0.01 0.01 0.02 0.03 0.04 0.04 0.02 0.01 0.02 0.02 0.02 0.03 0.04
0.00 0.00 0.00 0.00 0.00 0.00 0.00 0.00 0.00 0.00 0.00 0.00 0.00 0.00 0.00 0.00 0.01 0.01 0.01 0.01 0.01 0.01 0.01 0.01 0.01 0.01 0.01 0.02 0.01 0.01 0.01 0.01 0.01 0.03 0.03 0.04 0.04 0.02 0.02 0.02 0.02 0.03 0.04
0.00 0.00 0.00 0.00 0.00 0.00 0.00 0.00 0.00 0.00 0.00 0.00 0.00 0.00 0.00 0.00 0.00 0.01 0.01 0.01 0.02 0.02 0.01 0.01 0.01 0.00 0.00 0.01 0.01 0.01 0.01 0.01 0.01 0.01 0.01 0.02 0.03 0.03 0.02 0.02 0.02 0.02 0.03
0.00 0.00 0.00 0.00 0.00 0.00 0.00 0.00 0.00 0.00 0.00 0.00 0.00 0.00 0.00 0.01 0.01 0.01 0.02 0.02 0.02 0.02 0.03 0.02 0.01 0.01 0.00 0.00 0.00 0.00 0.01 0.01 0.01 0.01 0.01 0.01 0.01 0.01 0.02 0.02 0.02 0.01 0.01
0.00 0.00 0.00 0.00 0.00 0.00 0.00 0.00 0.00 0.01 0.01 0.00 0.00 0.00 0.01 0.01 0.01 0.02 0.02 0.02 0.02 0.03 0.03 0.03 0.02 0.01 0.01 0.00 0.00 0.00 0.00 0.01 0.01 0.01 0.01 0.01 0.01 0.01 0.01 0.01 0.01 0.01 0.01
0.00 0.00 0.00 0.00 0.00 0.00 0.01 0.01 0.01 0.01 0.01 0.00 0.00 0.01 0.01 0.01 0.02 0.02 0.02 0.02 0.03 0.03 0.02 0.02 0.01 0.01 0.01 0.00 0.00 0.01 0.00 0.00 0.00 0.01 0.01 0.01 0.01 0.01 0.01 0.01 0.01 0.01 0.00
0.00 0.00 0.00 0.00 0.00 0.00 0.01 0.01 0.01 0.02 0.02 0.01 0.01 0.01 0.01 0.02 0.02 0.02 0.03 0.03 0.03 0.03 0.03 0.02 0.01 0.01 0.01 0.01 0.00 0.00 0.01 0.00 0.00 0.00 0.01 0.01 0.00 0.00 0.01 0.01 0.01 0.01 0.01
0.00 0.00 0.00 0.00 0.00 0.01 0.01 0.01 0.01 0.01 0.02 0.02 0.02 0.01 0.01 0.02 0.03 0.03 0.03 0.03 0.04 0.04 0.04 0.03 0.02 0.01 0.01 0.01 0.01 0.01 0.00 0.00 0.00 0.00 0.00 0.01 0.01 0.00 0.01 0.01 0.01 0.00 0.00
0.00 0.00 0.00 0.00 0.01 0.01 0.01 0.01 0.01 0.01 0.02 0.03 0.03 0.02 0.02 0.02 0.03 0.03 0.04 0.04 0.05 0.05 0.04 0.03 0.02 0.01 0.01 0.00 0.01 0.00 0.00 0.00 0.00 0.01 0.01 0.00 0.01 0.01 0.01 0.00 0.00 0.00 0.00
0.00 0.00 0.00 0.01 0.01 0.00 0.00 0.00 0.01 0.01 0.02 0.03 0.03 0.03 0.02 0.02 0.03 0.04 0.05 0.05 0.06 0.06 0.06 0.04 0.03 0.02 0.01 0.00 0.00 0.00 0.00 0.00 0.00 0.01 0.01 0.01 0.01 0.01 0.01 0.00 0.00 0.00 0.00
0.00 0.01 0.01 0.01 0.00 0.00 0.01 0.01 0.01 0.01 0.01 0.02 0.03 0.03 0.02 0.02 0.03 0.04 0.06 0.07 0.07 0.07 0.07 0.06 0.05 0.03 0.02 0.01 0.00 0.00 0.00 0.00 0.00 0.00 0.01 0.00 0.00 0.00 0.00 0.00 0.00 0.00 0.00
0.01 0.01 0.01 0.01 0.01 0.01 0.01 0.01 0.01 0.01 0.01 0.01 0.02 0.03 0.03 0.02 0.02 0.03 0.05 0.07 0.08 0.08 0.07 0.06 0.06 0.04 0.02 0.01 0.00 0.00 0.00 0.00 0.00 0.00 0.00 0.00 0.00 0.00 0.00 0.00 0.00 0.00 0.00
0.01 0.01 0.01 0.01 0.01 0.01 0.01 0.01 0.01 0.01 0.01 0.01 0.02 0.02 0.03 0.03 0.03 0.03 0.04 0.07 0.08 0.08 0.08 0.07 0.06 0.05 0.03 0.02 0.01 0.00 0.00 0.00 0.00 0.00 0.00 0.00 0.00 0.00 0.00 0.00 0.00 0.00 0.00
0.01 0.01 0.01 0.01 0.02 0.02 0.02 0.02 0.02 0.02 0.02 0.02 0.02 0.02 0.03 0.04 0.04 0.03 0.04 0.07 0.09 0.08 0.07 0.07 0.07 0.05 0.04 0.02 0.01 0.01 0.01 0.00 0.00 0.00 0.00 0.00 0.00 0.00 0.00 0.00 0.00 0.00 0.00
0.01 0.01 0.02 0.02 0.02 0.03 0.03 0.03 0.03 0.03 0.02 0.02 0.02 0.02 0.03 0.04 0.05 0.05 0.05 0.07 0.09 0.08 0.07 0.07 0.07 0.06 0.04 0.03 0.02 0.02 0.01 0.01 0.00 0.00 0.00 0.00 0.00 0.00 0.00 0.00 0.00 0.00 0.00
MSLP
1013.39 1013.20 1013.04 1012.92 1012.81 1012.70 1012.59 1012.48 1012.35 1012.23 1012.12 1012.02 1011.93 1011.86 1011.79 1011.73 1011.65 1011.56 1011.43 1011.28 1011.11 1010.93 1010.76 1010.62 1010.51 1010.46 1010.46 1010.50 1010.59 1010.69 1010.79 1010.88 1010.93 1010.95 1010.93 1010.90 1010.86 1010.83 1010.85 1010.92 1011.05 1011.26 1011.54
1013.67 1013.41 1013.18 1012.98 1012.79 1012.61 1012.42 1012.23 1012.04 1011.85 1011.68 1011.52 1011.40 1011.32 1011.26 1011.22 1011.19 1011.16 1011.10 1011.01 1010.90 1010.77 1010.63 1010.51 1010.41 1010.36 1010.36 1010.41 1010.51 1010.64 1010.78 1010.91 1011.01 1011.08 1011.11 1011.11 1011.10 1011.09 1011.10 1011.16 1011.27 1011.45 1011.69
1014.08 1013.77 1013.49 1013.22 1012.96 1012.70 1012.43 1012.14 1011.86 1011.58 1011.32 1011.09 1010.91 1010.78 1010.71 1010.67 1010.66 1010.67 1010.66 1010.64 1010.59 1010.52 1010.43 1010.34 1010.27 1010.24 1010.25 1010.31 1010.42 1010.57 1010.74 1010.91 1011.06 1011.17 1011.25 1011.30 1011.32 1011.33 1011.36 1011.41 1011.51 1011.67 1011.88
1014.60 1014.26 1013.94 1013.62 1013.29 1012.95 1012.58 1012.20 1011.81 1011.42 1011.05 1010.72 1010.46 1010.26 1010.13 1010.07 1010.06 1010.08 1010.11 1010.13 1010.14 1010.13 1010.09 1010.06 1010.03 1010.02 1010.06 1010.14 1010.27 1010.43 1010.63 1010.82 1011.01 1011.17 1011.29 1011.38 1011.44 1011.49 1011.54 1011.60 1011.70 1011.84 1012.03
1015.16 1014.81 1014.46 1014.09 1013.70 1013.28 1012.83 1012.34 1011.84 1011.34 1010.85 1010.41 1010.04 1009.74 1009.54 1009.41 1009.36 1009.37 1009.41 1009.46 1009.51 1009.55 1009.58 1009.60 1009.62 1009.66 1009.74 1009.85 1010.00 1010.19 1010.40 1010.62 1010.83 1011.02 1011.19 1011.32 1011.42 1011.51 1011.59 1011.68 1011.78 1011.92 1012.09
1015.68 1015.32 1014.94 1014.54 1014.09 1013.60 1013.07 1012.49 1011.88 1011.27 1010.67 1010.12 1009.63 1009.23 1008.92 1008.71 1008.59 1008.55 1008.57 1008.62 1008.69 1008.77 1008.86 1008.94 1009.03 1009.13 1009.26 1009.42 1009.60 1009.81 1010.04 1010.28 1010.51 1010.73 1010.92 1011.09 1011.24 1011.37 1011.49 1011.62 1011.75 1011.89 1012.05
1016.08 1015.71 1015.31 1014.86 1014.37 1013.82 1013.21 1012.56 1011.87 1011.17 1010.48 1009.82 1009.22 1008.71 1008.29 1007.98 1007.77 1007.66 1007.62 1007.65 1007.72 1007.83 1007.96 1008.10 1008.26 1008.44 1008.64 1008.85 1009.08 1009.33 1009.58 1009.83 1010.08 1010.31 1010.53 1010.73 1010.92 1011.09 1011.26 1011.42 1011.58 1011.75 1011.93
1016.29 1015.90 1015.47 1014.99 1014.45 1013.86 1013.21 1012.50 1011.76 1011.00 1010.24 1009.50 1008.82 1008.20 1007.69 1007.27 1006.95 1006.75 1006.64 1006.61 1006.66 1006.78 1006.94 1007.14 1007.37 1007.63 1007.90 1008.19 1008.47 1008.76 1009.04 1009.31 1009.57 1009.81 1010.04 1010.27 1010.49 1010.70 1010.91 1011.12 1011.33 1011.54 1011.74
1016.30 1015.88 1015.42 1014.91 1014.34 1013.72 1013.04 1012.31 1011.55 1010.76 1009.96 1009.18 1008.44 1007.76 1007.15 1006.63 1006.21 1005.90 1005.70 1005.60 1005.61 1005.71 1005.89 1006.13 1006.42 1006.75 1007.10 1007.46 1007.81 1008.15 1008.46 1008.76 1009.03 1009.28 1009.52 1009.76 1010.00 1010.25 1010.51 1010.77 1011.03 1011.29 1011.53
1016.13 1015.68 1015.20 1014.66 1014.07 1013.43 1012.75 1012.02 1011.26 1010.48 1009.69 1008.90 1008.13 1007.40 1006.72 1006.11 1005.60 1005.18 1004.88 1004.70 1004.64 1004.70 1004.87 1005.13 1005.46 1005.86 1006.28 1006.71 1007.13 1007.52 1007.87 1008.19 1008.47 1008.74 1008.99 1009.24 1009.50 1009.78 1010.08 1010.39 1010.71 1011.02 1011.32
1015.85 1015.38 1014.86 1014.30 1013.70 1013.05 1012.38 1011.67 1010.94 1010.19 1009.42 1008.65 1007.89 1007.14 1006.42 1005.75 1005.14 1004.63 1004.22 1003.94 1003.79 1003.79 1003.92 1004.17 1004.53 1004.96 1005.44 1005.93 1006.41 1006.85 1007.25 1007.60 1007.91 1008.19 1008.45 1008.71 1008.99 1009.30 1009.64 1010.00 1010.38 1010.75 1011.12
1015.52 1015.02 1014.48 1013.90 1013.28 1012.63 1011.97 1011.29 1010.59 1009.89 1009.17 1008.44 1007.71 1006.96 1006.22 1005.51 1004.83 1004.22 1003.71 1003.32 1003.08 1002.99 1003.05 1003.27 1003.61 1004.06 1004.56 1005.10 1005.63 1006.13 1006.57 1006.96 1007.30 1007.61 1007.89 1008.17 1008.47 1008.81 1009.19 1009.60 1010.03 1010.47 1010.90
1015.19 1014.67 1014.10 1013.49 1012.85 1012.20 1011.53 1010.88 1010.22 1009.56 1008.90 1008.23 1007.53 1006.81 1006.08 1005.33 1004.60 1003.91 1003.30 1002.80 1002.44 1002.25 1002.23 1002.38 1002.68 1003.10 1003.62 1004.18 1004.75 1005.30 1005.79 1006.23 1006.62 1006.96 1007.28 1007.59 1007.93 1008.30 1008.72 1009.17 1009.66 1010.16 1010.65
1014.87 1014.31 1013.71 1013.07 1012.40 1011.73 1011.06 1010.42 1009.79 1009.18 1008.57 1007.95 1007.30 1006.62 1005.89 1005.14 1004.37 1003.61 1002.91 1002.31 1001.84 1001.53 1001.40 1001.46 1001.69 1002.08 1002.57 1003.14 1003.74 1004.33 1004.88 1005.38 1005.83 1006.22 1006.59 1006.96 1007.34 1007.75 1008.21 1008.71 1009.25 1009.80 1010.35
1014.53 1013.95 1013.31 1012.62 1011.91 1011.20 1010.52 1009.87 1009.25 1008.67 1008.11 1007.54 1006.94 1006.30 1005.60 1004.85 1004.06 1003.26 1002.48 1001.78 1001.20 1000.78 1000.54 1000.50 1000.65 1000.97 1001.43 1001.99 1002.61 1003.23 1003.84 1004.41 1004.92 1005.40 1005.84 1006.27 1006.70 1007.17 1007.67 1008.21 1008.79 1009.38 1009.97
1014.15 1013.52 1012.83 1012.09 1011.34 1010.59 1009.87 1009.20 1008.59 1008.03 1007.50 1006.97 1006.42 1005.82 1005.15 1004.42 1003.63 1002.80 1001.97 1001.20 1000.53 1000.00 999.66 999.51 999.57 999.82 1000.24 1000.78 1001.40 1002.06 1002.72 1003.35 1003.95 1004.50 1005.03 1005.53 1006.04 1006.56 1007.11 1007.69 1008.30 1008.92 1009.54
1013.67 1013.01 1012.26 1011.47 1010.66 1009.87 1009.12 1008.43 1007.81 1007.26 1006.75 1006.26 1005.75 1005.20 1004.57 1003.86 1003.08 1002.25 1001.39 1000.57 999.83 999.23 998.79 998.56 998.53 998.71 999.08 999.59 1000.21 1000.89 1001.59 1002.29 1002.96 1003.60 1004.21 1004.80 1005.38 1005.96 1006.56 1007.17 1007.80 1008.44 1009.07
1013.10 1012.39 1011.60 1010.76 1009.91 1009.08 1008.30 1007.59 1006.97 1006.42 1005.93 1005.47 1004.99 1004.48 1003.89 1003.22 1002.47 1001.65 1000.79 999.95 999.17 998.51 998.02 997.71 997.62 997.74 998.05 998.53 999.13 999.82 1000.56 1001.30 1002.04 1002.75 1003.44 1004.10 1004.74 1005.38 1006.02 1006.67 1007.32 1007.97 1008.60
1012.43 1011.68 1010.86 1009.99 1009.12 1008.26 1007.47 1006.75 1006.13 1005.59 1005.11 1004.67 1004.23 1003.74 1003.20 1002.56 1001.84 1001.05 1000.21 999.38 998.60 997.92 997.39 997.04 996.90 996.97 997.23 997.67 998.26 998.94 999.69 1000.46 1001.24 1002.00 1002.74 1003.45 1004.15 1004.84 1005.51 1006.19 1006.86 1007.51 1008.15
1011.70 1010.94 1010.10 1009.23 1008.34 1007.49 1006.70 1005.99 1005.37 1004.83 1004.37 1003.94 1003.51 1003.05 1002.52 1001.92 1001.24 1000.48 999.68 998.88 998.12 997.45 996.92 996.56 996.40 996.43 996.66 997.07 997.62 998.28 999.01 999.78 1000.57 1001.36 1002.13 1002.88 1003.61 1004.33 1005.04 1005.73 1006.42 1007.08 1007.73
1010.97 1010.20 1009.37 1008.51 1007.65 1006.82 1006.04 1005.35 1004.73 1004.20 1003.73 1003.29 1002.86 1002.40 1001.89 1001.31 1000.65 999.93 999.18 998.42 997.71 997.08 996.58 996.24 996.07 996.10 996.30 996.68 997.19 997.82 998.52 999.27 1000.04 1000.82 1001.59 1002.36 1003.11 1003.85 1004.58 1005.29 1006.00 1006.68 1007.34
1010.25 1009.50 1008.70 1007.87 1007.05 1006.25 1005.51 1004.82 1004.22 1003.67 1003.18 1002.71 1002.25 1001.77 1001.24 1000.66 1000.02 999.34 998.63 997.94 997.29 996.72 996.28 995.98 995.85 995.88 996.08 996.44 996.92 997.50 998.16 998.86 999.60 1000.36 1001.12 1001.87 1002.63 1003.38 1004.13 1004.87 1005.60 1006.31 1006.99
1009.58 1008.86 1008.10 1007.32 1006.54 1005.78 1005.06 1004.39 1003.77 1003.19 1002.65 1002.13 1001.61 1001.08 1000.51 999.90 999.26 998.60 997.94 997.31 996.74 996.26 995.90 995.67 995.59 995.66 995.88 996.23 996.69 997.24 997.86 998.52 999.22 999.94 1000.68 1001.42 1002.18 1002.94 1003.71 1004.48 1005.24 1005.98 1006.69
1008.94 1008.26 1007.55 1006.82 1006.08 1005.36 1004.65 1003.97 1003.32 1002.69 1002.08 1001.47 1000.87 1000.25 999.61 998.97 998.31 997.66 997.05 996.48 996.00 995.61 995.35 995.21 995.22 995.35 995.61 995.99 996.45 996.98 997.58 998.21 998.88 999.57 1000.29 1001.02 1001.78 1002.56 1003.35 1004.15 1004.94 1005.72 1006.46
1008.33 1007.69 1007.02 1006.34 1005.63 1004.93 1004.22 1003.51 1002.81 1002.10 1001.40 1000.69 999.98 999.27 998.55 997.84 997.16 996.52 995.94 995.44 995.05 994.77 994.62 994.59 994.70 994.92 995.25 995.67 996.16 996.71 997.30 997.93 998.58 999.27 999.98 1000.72 1001.49 1002.28 1003.10 1003.93 1004.75 1005.56 1006.33
1007.72 1007.12 1006.49 1005.84 1005.16 1004.46 1003.74 1002.99 1002.22 1001.44 1000.63 999.82 999.00 998.18 997.38 996.61 995.90 995.26 994.72 994.29 993.98 993.81 993.77 993.87 994.09 994.42 994.83 995.33 995.87 996.46 997.08 997.73 998.40 999.09 999.81 1000.57 1001.36 1002.17 1003.01 1003.86 1004.70 1005.53 1006.31
Thickness
5716 5714 5711 5709 5707 5705 5702 5700 5698 5697 5695 5693 5691 5690 5688 5686 5684 5680 5679 5677 5676 5676 5676 5675 5674 5674 5675 5676 5677 5678 5679 5679 5678 5681 5684 5687 5689 5691 5694 5696 5699 5701 5704
5713 5711 5709 5707 5705 5703 5702 5700 5698 5696 5694 5693 5692 5689 5687 5685 5683 5681 5678 5676 5676 5675 5675 5674 5674 5674 5673 5675 5675 5676 5676 5677 5677 5676 5679 5682 5684 5686 5688 5691 5694 5697 5699
5709 5707 5706 5705 5703 5701 5700 5699 5697 5695 5694 5692 5691 5689 5686 5684 5683 5681 5679 5677 5676 5675 5674 5674 5674 5674 5673 5674 5673 5674 5674 5675 5674 5674 5675 5675 5678 5682 5683 5685 5689 5691 5694
5705 5703 5702 5701 5699 5698 5697 5695 5694 5693 5691 5690 5689 5687 5686 5684 5682 5680 5678 5677 5676 5676 5675 5673 5673 5673 5672 5672 5672 5672 5672 5671 5671 5671 5671 5672 5673 5676 5678 5679 5682 5685 5687
5700 5698 5697 5697 5695 5694 5692 5691 5690 5688 5687 5687 5686 5685 5683 5681 5681 5679 5677 5676 5675 5675 5674 5673 5672 5670 5669 5669 5670 5671 5670 5669 5668 5668 5668 5668 5669 5670 5672 5674 5676 5678 5681
5695 5693 5692 5690 5689 5687 5686 5686 5685 5683 5683 5682 5681 5681 5680 5679 5676 5672 5671 5673 5674 5673 5673 5672 5672 5669 5666 5664 5664 5664 5664 5666 5666 5665 5665 5666 5667 5668 5668 5669 5670 5672 5673
5688 5687 5685 5684 5682 5681 5681 5680 5679 5678 5677 5676 5676 5676 5676 5676 5671 5669 5666 5668 5671 5672 5672 5671 5670 5670 5666 5666 5663 5660 5659 5659 5659 5663 5663 5664 5664 5665 5664 5664 5665 5666 5667
5680 5679 5677 5676 5675 5673 5673 5672 5672 5673 5672 5671 5671 5671 5671 5671 5667 5665 5664 5665 5668 5669 5669 5669 5668 5668 5666 5665 5664 5662 5661 5659 5658 5658 5660 5661 5660 5660 5661 5661 5661 5660 5662
5670 5669 5669 5668 5666 5665 5664 5664 5664 5664 5665 5665 5665 5665 5665 5666 5663 5660 5658 5662 5663 5665 5665 5665 5665 5665 5661 5658 5659 5659 5657 5656 5653 5652 5652 5652 5651 5651 5653 5654 5654 5654 5655
5659 5659 5659 5658 5657 5656 5656 5656 5656 5655 5656 5657 5658 5658 5660 5661 5658 5655 5652 5657 5659 5661 5661 5661 5657 5658 5656 5653 5655 5656 5654 5653 5652 5650 5648 5647 5647 5647 5645 5648 5649 5649 5650
5648 5647 5647 5647 5646 5646 5646 5646 5645 5646 5646 5647 5649 5650 5652 5653 5652 5649 5647 5650 5653 5655 5656 5656 5656 5651 5649 5648 5649 5652 5650 5649 5649 5648 5646 5646 5645 5644 5643 5643 5643 5643 5644
5635 5635 5635 5635 5635 5634 5633 5634 5634 5634 5634 5636 5638 5641 5643 5644 5644 5643 5641 5640 5644 5647 5650 5651 5651 5646 5643 5642 5643 5643 5642 5641 5644 5643 5642 5641 5641 5640 5638 5637 5636 5635 5635
5623 5623 5623 5623 5623 5622 5621 5621 5621 5622 5622 5624 5626 5629 5632 5635 5635 5633 5633 5633 5634 5637 5642 5642 5641 5638 5636 5636 5635 5635 5635 5637 5638 5638 5638 5637 5636 5635 5632 5630 5629 5627 5627
5611 5611 5611 5611 5611 5610 5608 5608 5608 5609 5610 5612 5614 5616 5620 5622 5625 5626 5626 5626 5625 5627 5630 5631 5629 5628 5628 5629 5629 5629 5631 5633 5634 5633 5633 5631 5629 5627 5626 5624 5623 5622 5621
5598 5598 5598 5597 5597 5596 5597 5596 5596 5597 5596 5596 5600 5603 5607 5611 5615 5614 5615 5618 5621 5624 5624 5623 5624 5624 5624 5625 5626 5627 5626 5626 5626 5626 5626 5624 5622 5621 5620 5618 5617 5617 5617
5584 5584 5583 5582 5582 5582 5583 5585 5585 5584 5585 5584 5586 5588 5595 5598 5601 5601 5603 5606 5609 5611 5612 5618 5621 5622 5623 5623 5623 5622 5622 5621 5622 5621 5620 5618 5617 5615 5614 5612 5611 5611 5612
5569 5569 5568 5567 5567 5568 5569 5570 5574 5576 5575 5575 5576 5578 5581 5584 5587 5590 5592 5595 5598 5600 5605 5613 5617 5619 5620 5619 5619 5619 5618 5617 5616 5614 5613 5612 5611 5609 5608 5606 5606 5605 5605
5556 5555 5553 5553 5553 5554 5555 5556 5558 5561 5565 5569 5569 5569 5570 5573 5576 5579 5581 5583 5589 5593 5601 5608 5612 5615 5615 5615 5614 5614 5613 5611 5609 5608 5607 5606 5605 5604 5602 5601 5600 5599 5598
5543 5542 5540 5539 5539 5540 5542 5543 5545 5547 5550 5554 5558 5560 5561 5562 5565 5568 5571 5578 5587 5591 5597 5602 5606 5609 5610 5610 5609 5608 5606 5605 5603 5602 5601 5600 5599 5597 5596 5595 5594 5588 5589
5531 5528 5525 5525 5526 5528 5530 5531 5532 5534 5537 5540 5544 5548 5550 5552 5557 5561 5565 5572 5580 5586 5591 5596 5600 5602 5603 5603 5603 5601 5600 5598 5597 5596 5595 5593 5592 5591 5590 5588 5587 5584 5583
5519 5519 5515 5515 5516 5516 5517 5518 5520 5522 5525 5528 5532 5536 5536 5540 5547 5553 5558 5564 5572 5578 5584 5588 5592 5595 5596 5596 5596 5595 5594 5593 5592 5590 5589 5587 5585 5584 5582 5581 5579 5577 5576
5507 5507 5506 5505 5504 5504 5504 5505 5507 5510 5514 5517 5521 5525 5526 5529 5537 5544 5549 5555 5562 5568 5574 5578 5583 5586 5589 5590 5590 5590 5590 5589 5587 5585 5583 5581 5578 5577 5575 5573 5571 5570 5568
5496 5495 5495 5494 5494 5493 5493 5495 5496 5498 5501 5505 5509 5513 5516 5521 5527 5533 5539 5546 5551 5557 5562 5567 5572 5576 5578 5581 5583 5585 5585 5585 5583 5580 5577 5574 5572 5570 5568 5566 5564 5562 5560
5485 5484 5484 5484 5484 5484 5483 5484 5486 5488 5490 5493 5497 5502 5506 5511 5517 5523 5529 5534 5539 5545 5551 5556 5561 5565 5568 5570 5573 5575 5577 5577 5575 5573 5570 5568 5566 5563 5561 5558 5556 5555 5552
5476 5475 5475 5474 5474 5474 5474 5475 5476 5478 5481 5484 5488 5493 5497 5502 5507 5513 5518 5524 5528 5535 5540 5545 5550 5553 5557 5561 5563 5565 5566 5566 5566 5564 5562 5560 5558 5555 5553 5550 5548 5546 5543
5468 5467 5466 5465 5465 5465 5465 5466 5468 5469 5472 5476 5479 5483 5487 5492 5498 5503 5509 5514 5519 5526 5531 5536 5540 5544 5547 5550 5552 5553 5554 5554 5553 5553 5553 5551 5549 5547 5544 5542 5539 5537 5534